Wind_Speed
48 46 48 49 58 63 65 68 71 69 70 69 75 74 71 70 73 76 75 74 70 70 68 62 60 56 56 51 50 51 51 50 49 51 48 46 48 46 48 47 46 43 39 43 41 40 41 37 37
46 46 47 48 52 59 64 64 69 70 69 70 70 75 77 77 75 74 76 79 78 75 73 73 68 66 62 59 60 57 54 54 50 52 55 52 51 51 50 50 49 49 44 44 48 42 40 43 40
43 45 47 45 47 54 59 62 63 67 71 72 71 70 73 75 79 78 80 81 77 79 78 77 77 72 68 66 65 64 63 60 60 59 56 56 56 54 56 52 51 54 53 48 52 49 46 47 42
43 45 43 41 41 45 49 56 61 65 68 70 72 71 72 73 74 76 78 79 80 80 81 79 77 82 79 76 74 73 69 69 65 61 62 61 60 59 60 58 55 58 57 51 49 50 51 52 50
39 39 37 37 39 43 46 50 57 62 64 69 70 73 74 75 74 75 76 79 80 83 85 82 78 77 82 85 82 79 77 76 74 73 72 69 67 64 64 64 59 60 62 59 57 54 55 55 55
36 36 37 39 39 40 44 49 52 57 62 67 70 72 74 76 78 79 80 80 80 82 84 84 84 84 83 84 87 86 84 83 82 78 78 77 76 74 70 66 67 64 66 65 64 60 59 52 57
36 36 37 39 41 39 41 44 48 52 57 61 66 70 73 74 76 79 79 81 81 81 83 84 83 85 86 87 89 89 86 85 85 86 87 84 81 80 78 75 72 70 70 71 69 67 63 60 58
38 37 38 40 39 41 42 42 45 48 50 53 57 60 63 67 72 75 77 79 80 82 85 88 86 86 85 87 89 89 89 89 88 88 88 88 89 85 82 81 79 77 75 73 72 71 65 65 62
43 39 39 38 38 38 37 38 40 42 46 49 50 55 57 60 63 64 66 69 70 74 79 83 84 88 88 88 87 88 90 89 88 88 88 88 88 87 85 84 81 79 77 78 76 75 71 70 66
41 37 36 36 37 37 35 34 35 36 38 39 42 46 51 56 58 61 62 64 65 68 70 73 75 78 81 86 88 89 88 90 92 92 90 91 91 89 87 84 82 82 84 84 79 84 83 77 73
35 34 35 35 36 35 35 35 35 35 34 34 35 39 43 47 50 52 55 57 59 62 65 67 67 69 74 77 81 86 91 94 95 95 95 94 94 93 91 89 88 85 83 86 84 82 86 86 80
32 35 35 37 37 34 34 37 36 35 35 36 36 37 39 39 38 39 40 44 49 49 53 58 60 64 65 69 76 80 85 89 91 96 98 99 102 101 98 96 95 94 91 86 89 88 91 89 86
32 34 34 35 36 34 35 38 38 35 35 35 35 35 35 34 33 34 36 37 39 43 44 47 52 56 60 66 68 71 75 79 83 91 96 100 104 105 104 102 99 101 99 98 95 90 96 95 95
35 35 35 35 36 36 36 39 41 37 37 36 36 36 35 34 34 35 34 36 36 36 40 44 47 50 54 57 62 67 75 80 85 88 90 95 99 104 107 108 107 103 104 103 102 100 95 95 95
37 37 35 35 37 38 36 40 43 41 41 39 39 38 38 37 38 39 38 37 37 41 42 44 45 49 53 58 62 67 73 78 84 89 93 95 98 99 100 104 107 110 112 110 109 107 103 101 98
39 36 37 38 38 40 38 42 43 44 44 42 41 40 40 40 41 42 44 43 43 45 47 48 51 55 58 62 67 71 76 80 86 91 96 97 99 100 101 101 103 109 115 117 115 114 111 110 109
40 41 39 40 40 41 41 46 46 46 47 46 45 42 43 44 43 44 45 46 47 50 52 52 54 58 62 66 71 76 81 86 89 92 97 96 95 97 99 101 103 105 107 113 120 123 118 119 110
44 43 42 40 42 42 42 47 46 46 49 49 47 45 46 46 46 46 47 49 51 53 55 56 59 62 66 69 75 80 83 86 92 94 95 94 93 96 99 100 101 102 105 109 111 119 128 121 121
46 44 44 42 42 42 43 46 45 45 50 49 48 47 48 49 48 47 49 51 53 53 55 59 62 65 68 72 73 76 79 86 91 92 93 91 90 89 85 84 90 94 98 101 107 109 118 129 128
45 48 45 44 43 41 42 43 43 43 47 48 47 48 48 49 48 49 50 53 53 54 58 62 65 68 69 70 72 75 80 84 85 86 84 84 85 84 83 83 87 90 94 98 102 107 110 114 125
47 48 47 43 42 42 43 41 42 43 44 45 48 49 48 46 48 50 50 51 53 57 60 64 67 68 69 72 74 76 79 79 79 82 81 81 82 81 78 79 81 84 89 95 100 104 110 114 115
53 56 52 49 46 41 44 40 45 44 43 46 46 48 47 48 49 49 50 50 55 58 62 65 66 67 73 75 75 73 70 72 78 76 75 74 74 75 77 76 78 79 81 86 94 101 106 113 117
58 58 57 55 49 45 45 43 46 45 43 45 46 47 47 48 47 47 49 53 57 60 61 64 67 70 71 74 74 70 68 74 74 74 72 70 70 72 72 72 74 77 81 85 87 95 103 106 111
60 65 61 57 54 45 48 47 45 47 45 44 46 47 46 46 46 48 53 56 58 61 61 65 70 71 70 72 74 70 72 68 67 67 66 66 66 67 71 71 74 76 78 82 87 91 95 106 112
61 64 61 57 55 50 52 47 47 49 46 47 49 50 49 48 48 50 54 56 59 60 62 67 69 69 68 71 70 70 71 65 64 63 62 62 64 67 68 68 71 74 76 79 83 90 96 103 105
63 64 62 55 55 52 50 47 48 50 49 46 47 48 48 47 49 51 54 57 60 61 64 69 69 64 67 67 70 70 68 64 62 60 59 61 63 65 66 69 70 72 74 77 81 83 90 98 101
67 68 69 58 50 47 48 49 52 50 50 49 48 49 50 48 50 52 53 56 58 62 66 68 70 66 63 66 66 65 63 60 58 58 59 61 63 64 67 69 70 72 73 75 79 83 85 90 96
70 71 71 61 53 53 50 51 54 54 51 49 49 52 52 48 49 50 52 55 59 64 66 67 68 62 61 64 61 59 59 58 56 56 59 62 64 66 67 66 67 71 72 73 75 79 82 85 88
73 73 73 65 54 55 53 50 54 54 51 49 50 54 52 47 47 49 51 56 58 62 63 66 65 60 60 61 57 56 56 55 55 58 60 60 61 60 60 62 64 65 66 69 71 72 76 79 80
68 70 69 64 62 60 52 46 52 53 52 47 47 51 49 46 44 48 53 54 58 59 59 66 65 58 60 57 56 54 54 54 55 56 56 57 55 53 56 58 60 60 61 64 64 64 65 68 71
Wind_Direction
273 263 252 246 239 234 235 233 236 236 237 235 234 235 236 237 238 239 241 239 243 239 240 243 245 248 247 249 251 251 256 262 264 260 263 268 268 273 278 281 283 282 284 284 288 287 293 294 297
272 257 253 249 244 238 235 237 235 237 237 238 236 238 237 239 240 242 243 244 246 244 242 243 245 247 250 251 253 257 258 258 261 261 263 266 269 271 272 275 278 279 280 278 285 285 288 291 295
263 255 254 254 251 244 239 238 239 237 238 239 239 238 240 241 240 242 243 245 245 246 244 245 248 248 251 253 254 255 258 258 259 261 263 259 264 269 271 271 272 270 276 275 279 281 283 283 287
257 257 257 254 251 246 245 241 238 238 238 239 239 240 239 241 243 246 246 245 246 245 246 247 253 250 251 254 257 258 257 258 256 260 262 264 262 262 264 266 269 270 273 272 270 275 280 279 283
259 259 255 253 252 251 248 244 242 238 239 239 241 241 243 243 245 245 248 250 249 248 248 250 252 252 252 255 258 259 259 258 259 261 259 260 262 262 262 262 265 265 266 271 270 272 272 273 278
258 255 252 252 254 252 252 250 248 244 243 242 242 243 243 244 246 246 247 248 250 252 252 252 252 252 252 255 256 258 260 259 259 260 261 262 261 261 261 259 260 260 261 264 268 270 267 259 272
256 256 252 252 252 253 253 251 251 250 249 248 247 247 246 245 246 248 248 249 250 251 251 252 251 251 251 253 254 256 258 259 259 260 259 260 262 262 260 257 256 257 259 261 263 264 265 264 265
256 256 256 254 254 257 255 253 251 249 248 250 251 250 250 251 249 249 250 251 252 252 250 249 250 252 251 252 252 255 256 255 256 258 260 258 259 259 260 262 261 260 257 258 259 260 258 260 262
251 255 258 255 255 258 256 254 251 250 248 249 249 247 247 248 249 250 251 251 251 251 252 252 252 251 251 251 250 251 252 251 252 253 254 254 254 255 255 255 257 259 255 257 255 255 252 257 259
249 255 255 257 258 260 257 256 250 243 241 242 243 245 245 246 247 247 247 249 251 252 253 254 253 253 251 250 250 250 250 249 250 250 249 252 252 252 250 251 253 253 255 254 253 250 252 257 251
246 252 254 256 257 259 259 254 247 242 238 238 242 241 243 244 245 246 248 248 249 250 251 251 252 252 252 251 250 251 251 250 249 248 248 246 247 248 248 248 247 248 249 252 249 250 249 250 252
248 250 254 254 252 255 256 253 248 242 242 242 241 244 242 239 241 244 245 247 249 252 253 252 254 254 254 255 254 252 252 251 251 251 249 248 246 244 243 244 244 244 245 244 251 253 252 251 250
248 250 254 252 251 252 254 253 249 243 245 244 246 249 246 244 242 239 241 245 247 249 253 254 253 252 253 252 252 253 253 252 253 252 251 251 249 246 245 240 242 242 244 244 246 251 254 252 253
247 252 253 255 254 254 252 254 251 244 243 244 245 250 251 246 242 241 242 247 253 257 257 257 256 256 257 258 259 258 257 255 252 252 252 251 250 251 251 247 242 242 241 242 243 246 251 253 253
248 251 253 254 255 254 253 255 254 251 245 247 244 248 251 251 247 244 246 248 254 257 261 259 261 263 263 263 263 263 263 261 259 257 255 254 256 255 252 252 252 246 242 239 242 243 244 247 251
250 253 256 256 257 254 253 257 257 254 252 248 250 250 252 257 256 252 252 255 259 263 264 265 267 269 269 270 268 267 265 263 263 262 261 261 259 257 257 255 252 251 249 241 239 243 244 245 248
250 256 258 258 255 253 253 257 256 255 254 251 248 251 253 255 255 254 254 258 261 263 265 269 275 276 274 274 274 272 270 266 266 266 266 266 265 264 263 259 258 257 252 251 245 239 243 245 245
252 255 261 255 255 253 255 257 256 254 254 252 248 250 254 255 256 257 257 259 262 264 268 273 277 279 280 280 281 279 277 277 272 271 273 273 271 267 266 264 262 258 255 253 250 248 242 241 244
250 255 257 253 255 254 255 258 256 256 255 252 248 248 253 256 258 262 263 264 266 270 275 278 281 284 287 289 289 286 282 281 280 279 279 277 276 274 269 267 261 258 256 254 253 249 246 243 241
255 258 252 252 253 254 256 261 263 259 256 256 250 248 253 256 259 264 266 268 271 275 280 284 286 289 291 292 292 288 286 285 285 284 281 278 275 271 268 266 262 258 254 252 249 249 247 245 244
250 253 254 254 258 257 256 259 264 261 259 253 254 250 252 257 263 264 268 271 276 280 284 286 289 292 296 297 293 291 290 290 289 286 284 281 276 273 270 267 263 260 256 252 249 247 246 245 245
246 249 253 256 259 263 261 259 266 261 259 256 253 256 256 258 265 268 272 277 281 283 285 289 292 295 300 296 293 292 293 290 286 284 282 279 276 274 271 268 265 263 259 255 253 250 246 245 244
242 248 253 258 260 263 265 259 265 263 258 256 257 260 263 264 266 271 277 279 282 286 288 293 296 300 297 297 294 296 292 288 285 283 282 278 275 273 272 269 265 262 260 258 255 253 250 247 246
251 250 252 257 259 260 265 263 261 264 259 255 257 262 265 266 269 273 277 282 287 289 294 296 299 300 299 297 296 294 291 291 287 284 280 278 276 274 272 271 268 265 261 258 256 254 252 250 248
253 252 253 254 258 262 261 262 258 262 262 261 261 263 266 269 271 275 281 286 288 292 294 298 299 300 299 296 296 296 292 292 289 285 282 280 278 276 275 274 271 268 265 260 257 254 252 250 248
244 255 254 257 259 256 258 260 260 260 262 264 265 267 267 270 274 279 284 287 290 293 296 300 301 301 300 299 296 294 292 293 289 287 287 286 285 284 280 276 272 272 270 267 263 258 255 252 249
249 254 255 260 252 257 260 259 259 261 261 263 266 269 272 275 278 282 284 288 291 294 299 302 304 302 301 297 295 295 295 295 292 290 291 289 288 286 285 284 281 278 274 269 266 264 261 256 253
246 247 255 260 254 258 260 262 261 260 262 265 268 270 271 275 279 282 287 290 294 297 302 304 304 304 302 298 298 299 300 299 296 294 293 292 290 290 289 288 283 280 277 273 270 266 263 260 256
242 248 252 254 255 259 261 263 262 263 264 265 268 269 273 276 278 283 288 293 297 301 305 307 306 306 303 302 302 303 303 301 300 299 296 295 295 295 293 289 287 284 281 277 274 270 266 264 261
244 246 251 255 256 257 258 263 264 265 263 263 267 269 274 276 280 286 290 297 300 305 309 311 312 309 306 309 309 308 307 306 303 301 302 302 303 299 296 291 288 286 284 279 276 274 270 267 263
Height
10715 10714 10714 10717 10721 10724 10727 10732 10735 10742 10745 10752 10757 10760 10764 10767 10771 10774 10774 10777 10782 10786 10789 10790 10793 10795 10798 10800 10803 10805 10806 10808 10808 10806 10806 10808 10808 10812 10812 10813 10814 10816 10818 10818 10817 10816 10817 10816 10816
10704 10704 10705 10707 10710 10714 10717 10722 10725 10732 10737 10739 10745 10749 10754 10757 10761 10765 10765 10768 10772 10776 10779 10782 10783 10786 10789 10792 10793 10795 10797 10800 10801 10802 10801 10800 10801 10802 10805 10806 10806 10807 10810 10811 10811 10809 10811 10810 10810
10694 10695 10697 10698 10701 10703 10708 10713 10716 10720 10724 10728 10733 10738 10743 10745 10749 10751 10754 10757 10760 10764 10769 10771 10774 10777 10779 10781 10783 10786 10788 10790 10792 10793 10794 10794 10793 10794 10794 10797 10800 10798 10801 10803 10803 10803 10805 10803 10804
10686 10687 10688 10690 10692 10693 10697 10702 10705 10709 10713 10717 10721 10726 10730 10733 10737 10739 10743 10746 10747 10753 10756 10762 10765 10767 10768 10770 10772 10774 10777 10778 10780 10782 10784 10785 10785 10785 10785 10787 10790 10790 10790 10793 10795 10795 10796 10795 10797
10678 10679 10680 10682 10683 10685 10687 10690 10693 10698 10700 10705 10709 10713 10718 10722 10725 10727 10730 10733 10738 10742 10744 10749 10752 10755 10757 10758 10759 10761 10763 10766 10767 10768 10771 10772 10775 10777 10776 10775 10779 10780 10780 10782 10783 10786 10786 10787 10787
10671 10672 10672 10674 10675 10677 10678 10681 10683 10687 10691 10695 10698 10701 10706 10711 10713 10716 10719 10723 10726 10728 10730 10734 10737 10741 10742 10742 10745 10747 10749 10751 10753 10755 10756 10758 10761 10763 10765 10766 10766 10769 10770 10771 10772 10774 10776 10777 10778
10663 10664 10664 10665 10668 10669 10671 10673 10675 10678 10681 10685 10688 10691 10694 10698 10701 10703 10706 10709 10713 10715 10716 10719 10722 10725 10727 10730 10729 10733 10735 10736 10739 10741 10742 10744 10745 10747 10750 10752 10755 10756 10757 10759 10760 10761 10764 10767 10768
10655 10655 10656 10658 10660 10661 10663 10665 10667 10669 10672 10675 10677 10679 10681 10685 10687 10690 10692 10694 10698 10700 10702 10704 10706 10709 10711 10715 10715 10718 10720 10722 10724 10726 10728 10730 10732 10732 10732 10735 10740 10742 10743 10745 10746 10748 10751 10753 10756
10648 10647 10648 10650 10651 10653 10655 10656 10658 10660 10662 10665 10666 10667 10669 10671 10674 10677 10679 10680 10683 10684 10685 10688 10693 10696 10697 10699 10699 10701 10702 10704 10706 10707 10710 10713 10715 10718 10719 10721 10721 10725 10729 10729 10731 10734 10736 10739 10744
10638 10640 10640 10642 10643 10645 10647 10648 10649 10651 10652 10653 10655 10657 10658 10659 10662 10665 10667 10669 10671 10672 10673 10674 10676 10677 10678 10680 10681 10684 10684 10686 10688 10689 10691 10693 10697 10702 10705 10707 10709 10709 10709 10712 10716 10719 10720 10722 10731
10630 10631 10633 10634 10635 10637 10638 10639 10642 10644 10645 10645 10648 10648 10649 10650 10652 10654 10656 10657 10658 10659 10659 10661 10661 10660 10662 10664 10666 10667 10667 10668 10668 10669 10672 10675 10677 10682 10686 10690 10694 10695 10693 10694 10693 10697 10702 10706 10714
10623 10624 10625 10627 10628 10629 10631 10632 10634 10636 10637 10638 10639 10639 10641 10642 10643 10645 10646 10646 10647 10648 10648 10648 10649 10649 10650 10650 10651 10650 10650 10649 10650 10651 10651 10652 10653 10658 10664 10667 10674 10676 10677 10680 10679 10682 10681 10687 10693
10614 10615 10617 10618 10620 10621 10623 10624 10626 10629 10629 10631 10631 10632 10633 10634 10636 10637 10638 10638 10639 10639 10639 10638 10638 10637 10636 10636 10635 10634 10633 10631 10629 10629 10629 10630 10632 10635 10640 10647 10653 10657 10660 10663 10664 10664 10662 10668 10672
10605 10608 10609 10611 10612 10613 10615 10616 10617 10623 10621 10623 10624 10624 10625 10626 10627 10628 10629 10629 10629 10629 10628 10627 10626 10626 10624 10623 10620 10618 10616 10613 10610 10608 10607 10609 10611 10615 10618 10625 10631 10636 10640 10641 10646 10646 10645 10647 10652
10597 10599 10601 10602 10603 10604 10607 10607 10608 10612 10613 10614 10615 10617 10617 10618 10619 10619 10619 10620 10620 10618 10618 10617 10615 10613 10610 10608 10605 10601 10597 10594 10590 10589 10589 10591 10592 10595 10599 10605 10607 10612 10617 10622 10624 10625 10627 10628 10629
10589 10591 10592 10592 10595 10595 10598 10596 10598 10601 10603 10605 10606 10607 10608 10610 10610 10610 10609 10610 10609 10608 10606 10604 10603 10600 10597 10593 10589 10583 10578 10575 10571 10569 10568 10570 10573 10575 10576 10580 10583 10586 10590 10597 10603 10604 10606 10610 10612
10580 10581 10583 10583 10585 10586 10588 10586 10588 10591 10592 10593 10595 10598 10599 10598 10600 10600 10600 10599 10598 10596 10594 10593 10591 10586 10582 10577 10571 10565 10558 10553 10551 10548 10546 10549 10552 10552 10554 10557 10559 10559 10564 10569 10576 10582 10584 10588 10591
10570 10572 10573 10575 10575 10577 10578 10575 10579 10580 10581 10582 10585 10587 10587 10588 10589 10590 10589 10588 10586 10585 10583 10580 10577 10572 10566 10560 10552 10545 10538 10534 10532 10530 10528 10527 10526 10526 10526 10527 10528 10530 10532 10535 10543 10551 10559 10566 10568
10560 10562 10564 10566 10565 10567 10568 10566 10570 10572 10569 10571 10574 10576 10576 10577 10579 10579 10577 10576 10575 10573 10570 10566 10561 10557 10550 10542 10532 10525 10519 10516 10513 10510 10505 10499 10497 10496 10496 10497 10498 10499 10503 10505 10509 10518 10527 10537 10541
10549 10552 10554 10556 10556 10558 10558 10557 10559 10562 10560 10560 10564 10566 10566 10567 10569 10567 10565 10564 10563 10560 10556 10551 10546 10540 10534 10525 10514 10507 10503 10496 10489 10483 10477 10472 10468 10467 10467 10468 10469 10469 10474 10478 10480 10486 10493 10501 10509
10540 10542 10543 10546 10546 10548 10548 10550 10549 10550 10551 10552 10552 10555 10557 10557 10557 10556 10554 10553 10551 10547 10542 10537 10531 10525 10516 10505 10496 10489 10483 10475 10466 10457 10451 10445 10442 10440 10441 10442 10443 10442 10445 10449 10453 10456 10461 10468 10474
10529 10530 10532 10534 10536 10539 10538 10543 10538 10540 10543 10543 10543 10544 10546 10547 10546 10545 10543 10541 10537 10533 10528 10522 10515 10508 10498 10486 10478 10472 10466 10458 10446 10438 10433 10426 10421 10418 10416 10418 10418 10419 10418 10420 10423 10428 10433 10439 10444
10518 10518 10520 10523 10526 10529 10528 10531 10527 10529 10533 10534 10534 10535 10536 10535 10536 10534 10531 10528 10524 10519 10515 10508 10501 10492 10481 10469 10460 10455 10447 10437 10427 10419 10413 10406 10402 10399 10396 10395 10395 10395 10395 10396 10397 10401 10406 10411 10418
10505 10506 10509 10512 10515 10521 10517 10518 10520 10518 10522 10524 10524 10524 10525 10525 10525 10523 10519 10516 10511 10505 10500 10493 10485 10475 10464 10452 10443 10437 10428 10419 10410 10402 10396 10389 10384 10381 10377 10376 10373 10371 10371 10371 10371 10373 10376 10380 10386
10491 10492 10496 10501 10504 10509 10505 10509 10510 10508 10511 10512 10513 10513 10513 10514 10513 10511 10506 10502 10498 10494 10488 10480 10470 10459 10449 10437 10427 10418 10409 10400 10392 10385 10378 10372 10367 10361 10358 10356 10352 10348 10347 10347 10346 10346 10346 10347 10353
10476 10479 10484 10489 10492 10495 10496 10501 10497 10498 10500 10501 10501 10501 10502 10503 10501 10498 10494 10489 10484 10479 10473 10464 10454 10444 10433 10420 10410 10402 10393 10385 10375 10367 10362 10355 10348 10343 10337 10332 10330 10327 10324 10321 10319 10320 10318 10318 10322
10466 10469 10468 10476 10481 10483 10487 10487 10485 10486 10488 10491 10491 10489 10489 10491 10489 10486 10483 10477 10472 10466 10459 10449 10438 10428 10416 10406 10395 10384 10375 10368 10361 10353 10346 10339 10332 10324 10316 10310 10305 10301 10297 10294 10291 10289 10289 10290 10291
10452 10454 10456 10464 10468 10472 10477 10475 10473 10473 10477 10479 10480 10478 10478 10482 10478 10474 10471 10466 10460 10453 10445 10435 10423 10413 10401 10390 10380 10370 10360 10351 10345 10338 10331 10324 10314 10306 10297 10290 10282 10274 10270 10266 10262 10259 10258 10259 10261
10436 10442 10443 10448 10456 10460 10464 10465 10460 10461 10465 10469 10469 10465 10467 10469 10466 10463 10460 10454 10448 10440 10432 10421 10409 10399 10387 10375 10365 10357 10348 10339 10331 10323 10315 10306 10297 10289 10278 10268 10260 10254 10247 10239 10234 10230 10228 10229 10229
10421 10428 10430 10436 10443 10445 10451 10457 10449 10447 10451 10458 10459 10455 10456 10456 10454 10452 10447 10442 10436 10428 10419 10407 10396 10385 10372 10362 10353 10344 10334 10325 10317 10308 10298 10289 10280 10271 10261 10252 10243 10233 10224 10215 10209 10204 10202 10200 10201